Volver al catálogo

STARLINK-37395

ActivoComunicacionesVLEO
NORAD 69148·PAYLOAD·🇺🇸 United States

Lanzado May 21, 2026 desde Cape Canaveral Space Force Station

Loading…

Próximos Pases (próximas 24 horas)

TLE

ActualizadoSource: CelesTrak SupGP

Época: Sep 14, 2026, 21:15 UTC

1 69148C 26111A   26257.88590278 -.00039443  00000+0 -11652-2 0  2576
2 69148  53.1572  91.5981 0001146  95.2841 206.4139 15.34414019    15

Sigue STARLINK-37395 en tiempo real con AllMySat

Download on the App Store